ARGOS Delta rocket - Orbit

View from above orbital plane
View from above orbital plane
View from above satellite
View from above satellite

Ground track
Ground track

The orbit data is extracted from the following two-line orbital elements,

1 25637U 99008D   13145.76457539  .00000210  00000-0  60868-4 0  1996
2 25637 096.4650 014.8781 0143700 318.1765 081.5471 14.45403139751227
Epoch (UTC): 25 May 2013 18:20:59
Eccentricity: 0.0143700
inclination: 96.4650°
perigee height: 638 km
apogee height: 843 km
right ascension of ascending node: 14.8781°
argument of perigee: 318.1765°
revolutions per day: 14.45403139
mean anomaly at epoch: 81.5471°
orbit number at epoch: 75122

The dashed part of the orbit path shows where the satellite is in the earth's shadow,  

Developed and maintained by Chris Peat, Heavens-Above GmbH. Please read the updated FAQ before sending e-mail. Imprint. DLR